Content
SEND FEEDBACK

Daily
Averages
Monthly
Summary
Mexico

CANCUN, QUINTANA ROO


Home > North America > Mexico > Quintana Roo
Elevation: 9 meters     Latitude: 21 09N     Longitude: 086 49W

WEATHER
 
SELECT A DAY
Number of Records: 163,931;   Date Range: 1/1/95 - 8/31/14
 
SHARE

PRINT THIS DATA

[ ← Previous Day ]
WEATHER ALMANAC - 29 OCTOBER, 2013
[ Next Day → ]
[ °F ]   °C
Weather ElementAverageHighLow
Temperature27.2 °C30 °C (9:44 am)24 °C (1:44 am)
Dewpoint24.8 °C26 °C (9:44 am)24 °C (1:44 am)
Humidity86.9 %100 % (1:44 am)74 % (2:44 pm)
Barometer1016.6 hPa1018.6 hPa (8:52 am)1014.2 hPa (2:46 am)
Wind Speed12.9 km/h27.8 km/h (12:40 pm)
Wind Gust33.3 km/h (1:28 pm)
Weather ElementAverage
Visibility10.5 km
Wind DirectionENE (77.5 °)

Weather ElementTotal
Precipitation---
Cooling Degree Days8.7 (Base 18.3)
Growing Degree Days17 (Base 10)
Averaged from 24 records on 29 October, 2013
WEATHER CONDITIONS BREAKOUT
WIND DIRECTION BREAKOUT
WEATHER BY HOUR - 29 OCTOBER, 2013
[ °F ]   °C
Local TimeTemperatureDewpointHumidityBarometerVisibilityWind DirectionWind SpeedGust SpeedPrecipitationEventsConditions
1:44 AM24 °C24 °C100 %1015.6 hPa11.3 kmENE (60°)9.3 km/hMostly Cloudy
2:46 AM24 °C24 °C100 %1014.2 hPa11.3 kmEast (80°)9.3 km/hMostly Cloudy
3:45 AM24 °C24 °C100 %1015.2 hPa9.7 kmENE (60°)9.3 km/hRainLight Rain
4:44 AM24 °C24 °C100 %1015.6 hPa9.7 kmNE (50°)9.3 km/hMostly Cloudy
5:43 AM26 °C25 °C94 %1015.2 hPa11.3 kmENE (60°)9.3 km/hMostly Cloudy
6:44 AM27 °C25 °C89 %1017.3 hPa9.7 kmENE (60°)9.3 km/hMostly Cloudy
7:48 AM28 °C25 °C84 %1017.9 hPa9.7 kmENE (60°)22.2 km/hScattered Clouds
8:52 AM29 °C25 °C79 %1018.6 hPa9.7 kmENE (70°)18.5 km/hMostly Cloudy
9:44 AM30 °C26 °C79 %1018.6 hPa9.7 kmENE (60°)18.5 km/hMostly Cloudy
10:44 AM29 °C25 °C79 %1018.3 hPa9.7 kmENE (60°)11.1 km/hMostly Cloudy
11:45 AM30 °C26 °C79 %1016.9 hPa11.3 kmESE (110°)11.1 km/hMostly Cloudy
12:40 PM29 °C25 °C79 %1016.3 hPa11.3 kmEast (100°)27.8 km/hMostly Cloudy
1:28 PM27 °C25 °C89 %6.4 kmESE (110°)13 km/h33.3 km/hRainRain
1:46 PM27 °C25 °C89 %1015.6 hPa9.7 kmEast (90°)9.3 km/hMostly Cloudy
2:44 PM29 °C24 °C74 %1014.9 hPa9.7 kmEast (100°)20.4 km/hScattered Clouds
3:48 PM29 °C25 °C79 %1015.6 hPa9.7 kmENE (70°)14.8 km/hScattered Clouds
4:41 PM28 °C25 °C84 %1015.9 hPa11.3 kmENE (70°)11.1 km/hScattered Clouds
5:45 PM27 °C25 °C89 %1016.6 hPa11.3 kmEast (100°)5.6 km/hScattered Clouds
6:43 PM27 °C25 °C89 %1016.9 hPa11.3 kmEast (100°)14.8 km/hScattered Clouds
7:47 PM27 °C25 °C89 %1017.3 hPa11.3 kmNE (50°)11.1 km/hPartly Cloudy
8:42 PM27 °C25 °C89 %1017.3 hPa11.3 kmESE (110°)9.3 km/hPartly Cloudy
9:50 PM27 °C24 °C84 %1017.9 hPa11.3 kmEast (80°)13 km/hScattered Clouds
10:46 PM27 °C24 °C84 %1017.6 hPa11.3 kmENE (70°)11.1 km/hScattered Clouds
11:49 PM27 °C24 °C84 %1016.6 hPa11.3 kmEast (80°)9.3 km/hScattered Clouds
Hourly data recorded from MMUN, located 0 kilometers away from Cancun, Quintana Roo







STORIES FROM OUR PARTNERS